Location: Lussas
(44.6119°N, 4.4726°E)
Time: 16:33:55
(UTC+00:00)

Cosmos 2184 Rocket - Pass Details

Date: 26 November 2020
Orbit: 958 x 1003 km, 82.9° (Epoch: 27 January)

Event Time Altitude Azimuth Distance (km) Brightness Sun altitude
Rises 06:10:02 0° 208° (SSW) 3,675 7.0 -7.8°
Reaches altitude 10° 06:12:40 10° 215° (SW) 2,737 6.2 -7.3°
Maximum altitude 06:18:36 43° 285° (WNW) 1,372 4.4 -6.4°
Drops below altitude 10° 06:24:38 10° 356° (N) 2,779 6.1 -5.4°
Sets 06:27:21 0° 3° (N) 3,736 6.8 -4.9°
